Regional Weather Roundup
Issued by NWS

Home | Current Version | Previous Version | Graphics & Text | Print | Product List | Glossary On
Versions: 1 2 3 4 5 6 7 8 9 10 11 12 13 14 15 16 17 18 19 20 21 22 23 24 25 26 27 28 29 30 31 32 33 34 35 36 37 38 39 40 41 42 43 44 45 46 47 48 49 50
000
ASUS43 KIND 262159
RWRIN

WEATHER ROUNDUP FOR INDIANA
NATIONAL WEATHER SERVICE INDIANAPOLIS IN
600 PM EDT MON SEP 26 2016

NOTE: "FAIR" INDICATES FEW OR NO CLOUDS BELOW 12,000 FEET WITH NO
SIGNIFICANT WEATHER AND/OR OBSTRUCTIONS TO VISIBILITY.

* - STATION DOES NOT REPORT WEATHER SUCH AS PRECIPITATION OR FOG.

+ - STATION NOT QUALITY CONTROLLED BY THE NATIONAL WEATHER SERVICE.
    USE DATA WITH CAUTION...ESPECIALLY DEWPOINT AND RELATIVE
    HUMIDITY OBSERVATIONS.

INZ001>003-010>013-019-020-262300-
NORTHWEST INDIANA

CITY           SKY/WX    TMP DP  RH WIND       PRES   REMARKS
GARY /AIRPORT/ SUNNY     72  30  21 W32       29.94S

$$

LMZ046-743>745-262300-
SOUTHERN LAKE MICHIGAN

STATION/POSITION TIME  TEMP    WIND        PRES    WAVE
                       AIR SEA DIR/SP/G            HT
                 (UTC) (F)     (DEG/KT/KT) (MB)    (FT)
BURNS HARBOR     2102   68     260/ 20     1013.9F
MICHIGAN CITY    2100   67     240/ 24/ 25   N/A
5NW MICH CITY    2100   68 66  270/ 17/ 25   N/A     5

$$

INZ004-005-014>016-021>024-262300-
NORTH CENTRAL INDIANA

CITY           SKY/WX    TMP DP  RH WIND       PRES   REMARKS
ELKHART        SUNNY    N/A N/A N/A W12       29.92S
GOSHEN         SUNNY     67  36  31 W16G25    29.93S
SOUTH BEND     SUNNY     67  38  34 W16       29.93S

$$

INZ006>009-017-018-025>027-262300-
NORTHEAST INDIANA

CITY           SKY/WX    TMP DP  RH WIND       PRES   REMARKS
ANGOLA *+        N/A     68  61  77 W12       29.92S
FORT WAYNE     MOSUNNY   70  35  27 SW13G23   29.94F
KENDALLVILLE + SUNNY     67  37  32 W14G26    29.93F

$$

INZ028-029-035-036-043>045-051>053-262300-
WEST CENTRAL INDIANA

CITY           SKY/WX    TMP DP  RH WIND       PRES   REMARKS
CRAWFORDSVL +  SUNNY     69  37  31 W10       30.01F
LAFAYETTE      SUNNY     70  38  31 W14G20    29.98F
TERRE HAUTE    SUNNY     73  34  23 W14       30.03F

$$

INZ030>032-037>040-046>048-054>057-064-065-262300-
CENTRAL INDIANA

CITY           SKY/WX    TMP DP  RH WIND       PRES   REMARKS
COLUMBUS       SUNNY     66  50  55 W12       30.04F
INDIANAPOLIS   MOSUNNY   70  41  34 W16       30.01F
-EAGLE CREEK   SUNNY     71  39  31 W7        30.00F
MT COMFORT *+  SUNNY     68  43  40 W12G17    30.02S
SHELBYVILLE    SUNNY     70  42  36 W12G21    30.01F

$$

INZ033-034-041-042-049-050-058-059-262300-
EAST CENTRAL INDIANA

CITY           SKY/WX    TMP DP  RH WIND       PRES   REMARKS
MUNCIE         SUNNY     71  40  32 W12G18    29.98F

$$

INZ060-061-067>069-081>083-085>088-262300-
SOUTHWEST INDIANA

CITY           SKY/WX    TMP DP  RH WIND       PRES   REMARKS
EVANSVILLE     SUNNY     73  48  41 NW9       30.07F
HUNTINGBURG *+   N/A     72  48  43 W10       30.06F

$$

INZ062-063-066-070>080-084-089>092-262300-
SOUTH CENTRAL AND SOUTHEAST INDIANA

CITY           SKY/WX    TMP DP  RH WIND       PRES   REMARKS
BLOOMINGTON    SUNNY     70  43  37 W7        30.04F
MADISON *+     PTSUNNY   68  46  45 W5        30.06F
SEYMOUR +      CLOUDY    72  50  46 W13       30.04F

$$





USA.gov is the U.S. government's official web portal to all federal, state and local government web resources and services.